Location: Claremont
(33.9858°S, 18.4575°E)
Time: 03:05:49
(UTC+00:00)

Cosmos 1544 - Pass Details

Date: 03 March 2021
Orbit: 469 x 489 km, 82.5° (Epoch: 21 April)

Event Time Altitude Azimuth Distance (km) Brightness Sun altitude
Rises 17:51:27 0° 175° (S) 2,548 6.8 -7.3°
Reaches altitude 10° 17:53:44 10° 164° (SSE) 1,662 5.8 -7.7°
Maximum altitude 17:56:59 30° 101° (E) 877 3.9 -8.4°
Drops below altitude 10° 18:00:12 10° 37° (NE) 1,643 5.3 -9.0°
Enters shadow 18:01:26 - 30° (NNE) 2,118 5.9 -9.3°
